Glendale Luke AFB, AZ

4:14 PM MST on November 11, 2019 (GMT -0700)
Luke Air Force Base

Weather History for KLUF - September, 2019

Change the Weather History Date:

Saturday, September 21, 2019

  Actual Average Record
Temperature  
Mean Temperature 78 °F -  
Max Temperature 93 °F 99 °F 108 °F (1954)
Min Temperature 64 °F 63 °F 49 °F (1965)
Cooling Degree Days 14    
Growing Degree Days 28 (Base 50)    
Moisture  
Dew Point 29 °F    
Average Humidity 18    
Maximum Humidity 30    
Minimum Humidity 7    
Precipitation  
Precipitation 0.00 in - - ()
Sea Level Pressure  
Sea Level Pressure 29.81 in    
Wind  
Wind Speed 5 mph (WNW)    
Max Wind Speed 10 mph    
Max Gust Speed -    
Visibility 10 miles    
Events      
Averages and records for this station are not official NWS values.
T = Trace of Precipitation, MM = Missing Value Source: NWS Daily Summary

Daily Weather History Graph

Daily Weather History Graph

Search for Another Location

Airport or City:

Astronomy

Sep. 21, 2019 Rise Set
Actual Time 6:16 AM MST 6:27 PM MST
Civil Twilight 5:52 AM MST 6:52 PM MST
Nautical Twilight 5:23 AM MST 7:21 PM MST
Astronomical Twilight 4:53 AM MST 7:50 PM MST
Moon 11:27 PM MST (9/21) 1:08 PM MST (9/21)
Length of Visible Light 13h 00m
Length of Day
12h 10m
Waning Gibbous, 53% of the Moon is Illuminated
Sep 21
Waning Gibbous
Sep 21
Last Quarter
Sep 28
New
Oct 5
First Quarter
Oct 13
Full

Hourly Weather History & Observations

Time (MST) Temp. Dew Point Humidity Pressure Visibility Wind Dir Wind Speed Gust Speed Precip Events Conditions
12:58 AM 70.5 °F 35.8 °F 28% 29.78 in 10.0 mi WSW 3.5 mph - N/A   Clear
1:58 AM 68.7 °F 33.4 °F 27% 29.79 in 10.0 mi North 6.9 mph - N/A   Clear
2:58 AM 67.1 °F 32.9 °F 28% 29.79 in 10.0 mi North 8.1 mph - N/A   Clear
3:58 AM 65.7 °F 29.8 °F 26% 29.80 in 10.0 mi NNE 5.8 mph - N/A   Clear
4:58 AM 68.0 °F 26.6 °F 21% 29.82 in 10.0 mi Calm Calm - N/A   Clear
5:58 AM 65.8 °F 30.9 °F 27% 29.83 in 10.0 mi Calm Calm - N/A   Clear
6:58 AM 64.9 °F 32.7 °F 30% 29.84 in 10.0 mi NNW 5.8 mph - N/A   Clear
7:58 AM 72.1 °F 34.3 °F 25% 29.86 in 10.0 mi North 3.5 mph - N/A   Clear
8:58 AM 77.4 °F 38.8 °F 25% 29.87 in 10.0 mi Calm Calm - N/A   Clear
9:58 AM 81.3 °F 32.4 °F 17% 29.88 in 10.0 mi Calm Calm - N/A   Clear
10:58 AM 84.9 °F 30.4 °F 14% 29.87 in 10.0 mi Calm Calm - N/A   Clear
12:58 PM 90.5 °F 23.9 °F 9% 29.83 in 10.0 mi SSE 3.5 mph - N/A   Clear
1:58 PM 91.9 °F 22.3 °F 8% 29.80 in 10.0 mi SSE 6.9 mph - N/A   Clear
2:58 PM 92.8 °F 19.8 °F 7% 29.78 in 10.0 mi South 10.4 mph - N/A   Clear
3:58 PM 93.0 °F 23.0 °F 8% 29.76 in 10.0 mi SW 8.1 mph - N/A   Clear
4:58 PM 92.5 °F 22.6 °F 8% 29.77 in 10.0 mi SSW 10.4 mph - N/A   Clear
5:58 PM 91.6 °F 24.8 °F 9% 29.77 in 10.0 mi SW 6.9 mph - N/A   Clear
6:58 PM 87.6 °F 28.8 °F 12% 29.77 in 10.0 mi SW 5.8 mph - N/A   Clear
7:58 PM 84.4 °F 30.0 °F 14% 29.78 in 10.0 mi WNW 5.8 mph - N/A   Clear
8:58 PM 77.5 °F 35.6 °F 22% 29.80 in 10.0 mi NNW 5.8 mph - N/A   Clear
9:58 PM 78.4 °F 34.0 °F 20% 29.81 in 10.0 mi North 5.8 mph - N/A   Clear
10:58 PM 74.3 °F 26.6 °F 17% 29.82 in 10.0 mi NNW 9.2 mph - N/A   Clear
11:58 PM 74.1 °F 25.0 °F 16% 29.82 in 10.0 mi NNW 5.8 mph - N/A   Clear